Hourly Data Report for June 25, 2021

FISHER BRANCH (AUT)
MANITOBA
Current Station Operator: ECCC - MSC

51°05'00.100" N
97°33'16.200" W
253.00 m
50309J6
71442
WSZ

Download Data

Hourly Data (June 2021)
Hourly Data Report for June 25, 2021
TIME
LST
Temp Definition
°C
Dew Point Definition
°C
Rel Hum Definition
%
Precip. Amount Definition
mm

Wind Dir Definition
10's deg

Wind Spd Definition
km/h
Visibility Definition
km
Stn Press Definition
kPa
Hmdx Definition


Wind Chill Definition


Weather Definition


00:00 16.7 10.6 67 0.0 26 8   98.17     LegendNANA
01:00 12.9 10.2 83 0.0 27 3   98.19     LegendNANA
02:00 11.5 9.6 88 0.0 26 4   98.21     LegendNANA
03:00 10.3 9.1 92 0.0 29 5   98.19     LegendNANA
04:00 11.6 10.7 94 0.0 28 8   98.18     LegendNANA
05:00 11.9 10.5 91 0.0 28 4   98.21     LegendNANA
06:00 11.8 10.8 93 0.0 25 3   98.24     LegendNANA
07:00 15.5 12.0 80 0.0 21 3   98.27     LegendNANA
08:00 19.1 11.4 61 0.0 26 2   98.29     LegendNANA
09:00 22.5 9.1 43 0.0 27 5   98.23     LegendNANA
10:00 25.0 8.2 34 0.0 25 7   98.19 25   LegendNANA
11:00 24.9 7.4 33 0.0 27 14   98.16 25   LegendNANA
12:00 26.4 7.1 29 0.0 27 12   98.11 26   LegendNANA
13:00 26.8 5.2 25 0.0 28 9   98.07 26   LegendNANA
14:00 27.6 6.4 26 0.0 29 13   98.03 27   LegendNANA
15:00 28.4 6.8 25 0.0 24 12   98.00 28   LegendNANA
16:00 28.2 7.6 27 0.0 26 12   97.98 28   LegendNANA
17:00 27.4 6.6 27 0.0 26 13   97.96 27   LegendNANA
18:00 27.3 6.4 27 0.0 23 12   97.92 27   LegendNANA
19:00 26.1 8.0 32 0.0 27 8   97.90 27   LegendNANA
20:00 23.5 9.9 42 0.0 23 8   97.90 25   LegendNANA
21:00 20.7 12.6 60 0.0 20 8   97.90     LegendNANA
22:00 19.9 13.8 68 0.0 19 11   97.93     LegendNANA
23:00 19.6 14.3 71 0.0 20 13   97.92     LegendNANA

Notes on Data Quality.

Legend

  • E = Estimated
  • M = Missing
  • NA = Not Available*
  • [empty] = Indicates an unobserved value
Date modified: